World > North America > United States > Utah

East Carbon, Utah Regional Weather

Lat: 39.55N, Lon: 110.38W
Wx Zone: UTZ012Web Search

Ads allow us to feed your daily addiction for the world's greatest weather information. We're determined to offer quality sponsors, in the least annoying way possible.

Feedback


°F Click to change East Carbon hourly weather to Imperial units.Click to change East Carbon hourly weather to Metric units. °C
East Carbon Weather Map
UTC Time: 5/15/2021, 10:15
Your Time:

East Carbon, UT Regional Weather

Expires:202105151100;;145322
ASUS45 KSLC 151010
RWRUT 

UTAH REGIONAL WEATHER ROUNDUP
NATIONAL WEATHER SERVICE SALT LAKE CITY UT
400 AM MDT SAT MAY 15 2021


UTZ011>015-024>027-151100-

CENTRAL/NORTHEAST UTAH
  
CITY           SKY/WX    TMP DP  RH WIND       PRES   REMARKS
PROVO AIRPORT  MOCLDY    55  39  54 CALM      29.90S                  
MOAB/CANYONLAN CLEAR     62  24  23 CALM      29.83R                  
MANTI            N/A     41  29  62 NE3       29.94S                  
PRICE          MOCLDY    59  27  29 NW6       29.91F                  
ROOSEVELT      PTCLDY    50  32  50 CALM      29.95F                  
DUCHESNE       SUNNY     50  30  46 NW8       29.97S                  
VERNAL         PTCLDY    56  31  38 NW7       29.94S                  

$$


SKY/WX - Weather  TMP - Temperature  DP - Dew Point  RH - Relative Humidity
WIND - Wind Direction/Speed PRES - Barometric Pressure VSB - Visibility
WCI - Wind Chill Index E13G22 Wind - East Wind 13 mph/Gusts of 22 mph